カタログに戻る

STARLINK-35128

運用中通信VLEO
NORAD 65628·PAYLOAD·🇺🇸 United States

打ち上げ Sep 18, 2025 から Cape Canaveral Space Force Station

Loading…

次のパス (今後24時間)

TLE

最新Source: CelesTrak SupGP

元期: Sep 15, 2026, 03:01 UTC

1 65628C 25210G   26258.12618056  .00030560  00000+0  90295-3 0  2588
2 65628  53.1565 142.9183 0001295  82.0756 314.1406 15.34373615    15

AllMySatでSTARLINK-35128をリアルタイム追跡

Download on the App Store